This demonstration page uses our WeatherBlox Daily Observations layout. Learn more.

Left ArrowRight Arrow

39.51506, -84.39828

Hourly Observations for March 30, 2020

Temp ( °F °C ) Dew Point ( °F °C ) Humidity (%) Winds ( mph kmh ) Pressure ( in mb ) Visibility ( mi km ) Precip ( " mm )
12:15 am 00:15 Clear 56 13.4 33 0.6 42 42 WSW 18 30 30 1016 10 16.0934 0 0
12:35 am 00:35 Clear 56 13.1 33 0.5 42 42 WSW 14 22 30 1016 10 16.0934 0 0
12:55 am 00:55 Clear 55 12.9 32 0.1 42 42 SW 14 22 30 1016 10 16.0934 0 0
1:15 am 01:15 Clear 55 12.8 31 -0.6 40 40 SW 13 20 30 1016 10 16.0934 0 0
1:35 am 01:35 Clear 54 12.2 31 -0.5 42 42 SW 14 22 30 1016 10 16.0934 0 0
1:55 am 01:55 Clear 54 12.3 31 -0.4 42 42 SW 13 20 30 1016 10 16.0934 0 0
2:15 am 02:15 Clear 54 12.2 31 -0.6 42 42 WSW 14 22 30 1016 10 16.0934 0 0
2:35 am 02:35 Clear 54 12.2 30 -1.1 40 40 WSW 13 20 30 1016 10 16.0934 0 0
2:55 am 02:55 Clear 53 11.6 30 -1 42 42 WSW 13 20 30 1016 10 16.0934 0 0
3:15 am 03:15 Clear 52 11.3 30 -1 43 43 WSW 14 22 30.01 1016 10 16.0934 0 0
3:35 am 03:35 Clear 52 11.2 31 -0.8 44 44 SW 9 15 30.01 1016 10 16.0934 0 0
3:55 am 03:55 Clear 52 11 31 -0.5 45 45 SW 14 22 30.01 1016 10 16.0934 0 0
4:15 am 04:15 Clear 52 11.1 33 0.4 48 48 W 17 28 30.01 1016 10 16.0934 0 0
4:35 am 04:35 Clear 52 11.1 34 1 50 50 WSW 22 35 30.02 1016 10 16.0934 0 0
4:55 am 04:55 Clear 51 10.6 35 1.4 53 53 WSW 18 30 30.02 1017 10 16.0934 0 0
5:15 am 05:15 Clear 51 10.3 35 1.4 54 54 WSW 18 30 30.04 1017 10 16.0934 0 0
5:35 am 05:35 Clear 50 10.1 34 1 54 54 WSW 17 28 30.05 1018 10 16.0934 0 0
5:55 am 05:55 Clear 49 9.5 33 0.4 53 53 W 18 30 30.06 1018 10 16.0934 0 0
6:15 am 06:15 Clear 48 9.1 31 -0.5 51 51 W 15 24 30.07 1018 10 16.0934 0 0
6:35 am 06:35 Clear 48 8.9 31 -0.5 52 52 WSW 15 24 30.07 1018 10 16.0934 0 0
6:55 am 06:55 Clear 47 8.4 31 -0.8 53 53 W 14 22 30.07 1018 10 16.0934 0 0
7:15 am 07:15 Clear 47 8.3 31 -0.4 55 55 WSW 15 24 30.07 1018 10 16.0934 0 0
7:35 am 07:35 Sunny 46 8 31 -0.3 56 56 W 12 19 30.08 1019 10 16.0934 0 0
7:55 am 07:55 Sunny 46 8 32 -0.1 57 57 W 14 22 30.09 1019 10 16.0934 0 0
8:15 am 08:15 Sunny 46 8 33 0.6 60 60 W 5 7 30.1 1019 10 16.0934 0 0
8:35 am 08:35 Sunny 46 7.9 33 0.5 60 60 WNW 16 26 30.12 1020 10 16.0934 0 0
8:55 am 08:55 Sunny 46 8 34 0.9 61 61 W 18 30 30.13 1020 10 16.0934 0 0
9:15 am 09:15 Partly Cloudy 47 8.3 35 1.4 62 62 W 20 31 30.13 1020 10 16.0934 0 0
9:35 am 09:35 Partly Cloudy 47 8.3 34 1.2 61 61 W 14 22 30.13 1020 10 16.0934 0 0
9:55 am 09:55 Partly Cloudy 48 8.9 35 1.4 60 60 W 15 24 30.13 1020 10 16.0934 0 0
10:15 am 10:15 Sunny 49 9.5 35 1.5 58 58 W 17 28 30.13 1020 10 16.0934 0 0
10:35 am 10:35 Partly Cloudy 50 9.9 35 1.4 56 56 W 18 30 30.14 1021 10 16.0934 0 0
10:55 am 10:55 Partly Cloudy 50 10.2 34 1.3 54 54 W 17 28 30.14 1021 10 16.0934 0 0
11:15 am 11:15 Partly Cloudy 51 10.3 34 1.3 54 54 W 18 30 30.15 1021 10 16.0934 0 0
11:35 am 11:35 Partly Cloudy 51 10.8 35 1.4 53 53 W 16 26 30.15 1021 10 16.0934 0 0
11:55 am 11:55 Partly Cloudy 52 11.3 34 1.3 51 51 W 20 31 30.15 1021 10 16.0934 0 0
12:15 pm 12:15 Sunny 53 11.7 36 2.1 52 52 WNW 14 22 30.14 1021 10 16.0934 0 0
12:35 pm 12:35 Mostly Cloudy 54 12 36 2.1 51 51 W 15 24 30.14 1021 10 16.0934 0 0
12:55 pm 12:55 Partly Cloudy 53 11.5 34 1.3 50 50 W 18 30 30.15 1021 10 16.0934 0 0
1:15 pm 13:15 Partly Cloudy 54 12.2 34 1.3 48 48 W 15 24 30.14 1021 10 16.0934 0 0
1:35 pm 13:35 Mostly Cloudy 54 12.1 36 2 50 50 W 15 24 30.13 1020 10 16.0934 0 0
1:55 pm 13:55 Cloudy 56 13.4 36 2.2 47 47 W 15 24 30.12 1020 10 16.0934 0 0
2:15 pm 14:15 Mostly Cloudy 56 13.5 37 2.5 48 48 W 14 22 30.12 1020 10 16.0934 0 0
2:35 pm 14:35 Mostly Cloudy 56 13.3 36 2.2 47 47 NW 18 30 30.12 1020 10 16.0934 0 0
2:55 pm 14:55 Partly Cloudy 56 13.5 35 1.7 45 45 W 16 26 30.11 1020 10 16.0934 0 0
3:15 pm 15:15 Partly Cloudy 58 14.2 36 2.2 45 45 WNW 18 30 30.11 1020 10 16.0934 0 0
3:35 pm 15:35 Mostly Cloudy 58 14.3 36 2.1 44 44 W 20 31 30.11 1020 10 16.0934 0 0
3:55 pm 15:55 Mostly Cloudy 58 14.3 37 2.7 46 46 WNW 17 28 30.1 1019 10 16.0934 0 0
4:15 pm 16:15 Cloudy 57 14 36 2.1 45 45 W 16 26 30.1 1019 10 16.0934 0 0
4:35 pm 16:35 Cloudy 58 14.7 38 3.3 47 47 WNW 15 24 30.1 1019 10 16.0934 0 0
4:55 pm 16:55 Mostly Cloudy 56 13.6 38 3.1 49 49 WNW 15 24 30.09 1019 10 16.0934 0 0
5:15 pm 17:15 Cloudy 57 13.8 37 2.5 47 47 NW 17 28 30.09 1019 10 16.0934 0 0
5:35 pm 17:35 Cloudy 56 13.6 37 2.7 48 48 NW 14 22 30.09 1019 10 16.0934 0 0
5:55 pm 17:55 Cloudy 55 12.9 37 2.7 50 50 NNW 14 22 30.08 1019 10 16.0934 0 0
6:15 pm 18:15 Cloudy 53 11.7 38 3.3 57 57 N 10 17 30.09 1019 10 16.0934 0 0
6:35 pm 18:35 Cloudy 53 11.4 38 3.1 57 57 N 13 20 30.1 1019 10 16.0934 0 0
6:55 pm 18:55 Cloudy 52 11.1 38 3.1 58 58 N 9 15 30.12 1020 10 16.0934 0 0
7:15 pm 19:15 Cloudy 51 10.7 38 3.1 60 60 N 13 20 30.12 1020 10 16.0934 0 0
7:35 pm 19:35 Cloudy 51 10.3 37 3 61 61 N 12 19 30.12 1020 10 16.0934 0 0
7:55 pm 19:55 Cloudy 50 10.1 37 2.9 61 61 N 8 13 30.12 1020 10 16.0934 0 0
8:15 pm 20:15 Cloudy 50 9.8 37 2.7 62 62 N 7 11 30.12 1020 10 16.0934 0 0
8:35 pm 20:35 Cloudy 49 9.6 36 2.3 61 61 N 9 15 30.13 1020 10 16.0934 0 0
8:55 pm 20:55 Cloudy 49 9.3 37 2.5 63 63 N 10 17 30.14 1021 10 16.0934 0 0
9:15 pm 21:15 Cloudy 48 8.9 36 2.4 64 64 N 8 13 30.15 1021 10 16.0934 0 0
9:35 pm 21:35 Cloudy 47 8.6 36 2.2 64 64 NNE 7 11 30.14 1021 10 16.0934 0 0
9:55 pm 21:55 Cloudy 47 8.4 36 2.1 65 65 NNE 6 9 30.14 1021 10 16.0934 0 0
10:15 pm 22:15 Cloudy 47 8.3 36 2 65 65 NNE 6 9 30.13 1020 10 16.0934 0 0
10:35 pm 22:35 Cloudy 47 8.2 36 2.2 66 66 NNE 7 11 30.12 1020 10 16.0934 0 0
10:55 pm 22:55 Cloudy 46 8 35 1.6 64 64 NNE 7 11 30.11 1020 10 16.0934 0 0
11:15 pm 23:15 Cloudy 46 7.7 35 1.7 66 66 NNE 3 6 30.12 1020 10 16.0934 0 0
11:35 pm 23:35 Clear 45 7 35 1.7 69 69 N 7 11 30.13 1020 10 16.0934 0 0
11:55 pm 23:55 Clear 45 7 35 1.8 70 70 N 5 7 30.13 1020 10 16.0934 0 0

Powered by AerisWeather